This is the latest recevied weather packets stored in our database for station/object IT9CNT. If no packets are shown the sender has not sent any weather packets the latest 1 day(s).
| Time | Temp. | Humidity | Pressure | Rain* | Wind** | Luminosity | Snow |
|---|---|---|---|---|---|---|---|
| 1778041263 | 15.56° C | 75% | 1011.7 hPa | 0 mm | 2.24 m/s, 99° | - | - |
| 1778041203 | 15.56° C | 75% | 1011.8 hPa | 0 mm | 2.24 m/s, 90° | - | - |
| 1778041143 | 15° C | 75% | 1011.6 hPa | 0 mm | 2.24 m/s, 88° | - | - |
| 1778041083 | 15.56° C | 75% | 1011.6 hPa | 0 mm | 2.24 m/s, 86° | - | - |
| 1778041023 | 15° C | 75% | 1011.8 hPa | 0 mm | 2.24 m/s, 84° | - | - |
| 1778040963 | 15° C | 75% | 1011.8 hPa | 0 mm | 2.68 m/s, 85° | - | - |
| 1778040903 | 15° C | 75% | 1011.6 hPa | 0 mm | 2.68 m/s, 78° | - | - |
| 1778040843 | 15° C | 75% | 1011.7 hPa | 0 mm | 2.24 m/s, 79° | - | - |
| 1778040783 | 15.56° C | 75% | 1011.7 hPa | 0 mm | 2.24 m/s, 80° | - | - |
| 1778040723 | 15.56° C | 75% | 1011.8 hPa | 0 mm | 2.68 m/s, 74° | - | - |
| 1778040663 | 15.56° C | 75% | 1011.8 hPa | 0 mm | 2.68 m/s, 71° | - | - |
| 1778040603 | 15.56° C | 75% | 1011.6 hPa | 0 mm | 2.68 m/s, 72° | - | - |
| 1778040543 | 15.56° C | 75% | 1011.6 hPa | 0 mm | 2.24 m/s, 78° | - | - |
| 1778040483 | 15.56° C | 75% | 1011.9 hPa | 0 mm | 2.24 m/s, 78° | - | - |
| 1778040423 | 15.56° C | 75% | 1012 hPa | 0 mm | 2.24 m/s, 80° | - | - |
| 1778040363 | 15.56° C | 75% | 1011.7 hPa | 0 mm | 2.24 m/s, 80° | - | - |
| 1778040303 | 15.56° C | 75% | 1012 hPa | 0 mm | 2.24 m/s, 84° | - | - |
| 1778040243 | 15.56° C | 75% | 1011.6 hPa | 0 mm | 2.24 m/s, 84° | - | - |
| 1778040183 | 15.56° C | 75% | 1011.8 hPa | 0 mm | 2.24 m/s, 81° | - | - |
| 1778040123 | 15.56° C | 75% | 1011.7 hPa | 0 mm | 2.24 m/s, 82° | - | - |
| 1778040063 | 15.56° C | 75% | 1011.8 hPa | 0 mm | 2.24 m/s, 85° | - | - |
| 1778040003 | 15.56° C | 75% | 1011.7 hPa | 0 mm | 2.24 m/s, 81° | - | - |
| 1778039943 | 15.56° C | 75% | 1011.5 hPa | 0 mm | 2.24 m/s, 80° | - | - |
| 1778039884 | 15.56° C | 76% | 1011.8 hPa | 0 mm | 2.68 m/s, 82° | - | - |
| 1778039823 | 15.56° C | 76% | 1011.9 hPa | 0 mm | 2.68 m/s, 80° | - | - |
* Rain latest hour (hover to see other rain measurements)
** Current wind speed in m/s (hover to see current wind gust speed)